Время (UTC), дата Ветер
(°,м/с) 
Видим.   Явления Облачность Т
(°С)
Тd
(°С)
f(%) Тe
(°С)
Pmin
(гПа)
dP
(гПа)
Po
(мм)
O2
(г/м3)
Тmin Tmax R s Состояние
почвы
00 03.03.15 250 (З) н/о  ливневой снег  10/10 600 м кучево-дожд. 
[Cb cap]
-5.1 -6.8 88 -6  1026.8  -0.9  744  306  -5.1    0.3  21  равномерный
сухой снег
100% 
03 03.03.15 250 (З) 20000 м  слаб. ливневой снег  10/8 600 м кучево-дожд., средняя 
[Cb cap|As trans]
-4.7 -7.1 83 -6  1026.5  -0.2  743  306  -5.6         
06 03.03.15 240 (ЮЗ) 20000 м  слаб. ливневой снег  10/6 600 м кучево-дожд., верхняя 
[Cb cap|Cs]
-2.7 -6.4 76 -5  1024.5  -1.6  742  303           
09 03.03.15 230 (ЮЗ) 20000 м  слаб. ливневой снег  10/5 600 м кучево-дожд., верхняя 
[Cb cap|Cs]
-2.4 -5 82 -3  1023  -1.5  741  302           
12 03.03.15 250 (З) 20000 м  слаб. ливневой снег  9/5 600 м кучево-дожд., средняя 
[Cb cap|Ac trans]
-3.4 -5.9 83 -5  1022.4  -0.7  741  303    -2.2  0.3     
15 03.03.15 240 (ЮЗ) 4000 м  слаб. ливневой снег  9/5 600 м кучево-дожд., средняя 
[Cb cap|Ac trans]
-3.6 -7.2 76 -7  1022.3  -0.1  740  303           
18 03.03.15 260 (З) 4000 м  слаб. ливневой снег  10/10 600 м кучево-дожд. 
[Cb cap]
-3.8 -6.7 80 -6  1022.1  -0.2  740  303           
21 03.03.15 250 (З) 2{10}  4000 м  слаб. ливневой снег  10/10 600 м кучево-дожд. 
[Cb cap]
-4.4 -7.5 79 -6  1012.1  -1.2  739  304           
00 04.03.15 250 (З) 4000 м  слаб. ливневой снег  10/10 600 м кучево-дожд. 
[Cb cap]
-4.9 -7.7 81 -7  1020.3  -0.8  739  304  -4.9    0.2  22  равномерный
сухой снег
100% 
03 04.03.15 250 (З) 20000 м  слаб. ливневой снег  10/10 600 м кучево-дожд. 
[Cb cap]
-4.6 -7.7 79 -7  1019.4  -0.7  738  303           
06 04.03.15 240 (ЮЗ) 3{11}  20000 м  слаб. ливневой снег  10/8 600 м кучево-дожд., верхняя 
[Cb cap|Cs]
-3.3 -7.6 72 -5  1018.3  -1  738  302           
09 04.03.15 250 (З) 3{11}  20000 м  слаб. ливневой снег  10/8 600 м кучево-дожд., средняя, верхняя 
[Cb cap|Ac trans|Cs]
-3.4 -7 76 -6  1017.9  -0.4  737  302           
12 04.03.15 250 (З) 2{10}  20000 м  слаб. ливневой снег  10/8 600 м кучево-дожд., средняя 
[Cb cap|Ac As]
-4.2 -7.2 79 -5  1018.9  0.9  738  303    -3  0.3     
15 04.03.15 270 (З) 4000 м  слаб. ливневой снег  9/9 600 м кучево-дожд. 
[Cb cap]
-4.8 -8 78 -6  1020.3  1.2  739  304           
18 04.03.15 260 (З) 4000 м  слаб. ливневой снег  10/4 600 м кучево-дожд., верхняя 
[Cb cap|Cs]
-6.6 -9.8 78 -8  1021.3  0.8  739  306           
21 04.03.15 250 (З) 4000 м  слаб. ливневой снег  9/6 600 м кучево-дожд., верхняя 
[Cb cap|Ci fib]
-6.3 -9.4 79 -6  1021.5  0.2  740  306           
00 05.03.15 240 (ЮЗ) 4000 м  {ливн. осадки}  10/3 600 м кучево-дожд., верхняя 
[Cb cap|Cs]
-9.7 -11.8 85 -10  1022.5  0.6  740  310  -10.1    0.0  20  равномерный
сухой снег
100% 
03 05.03.15 340 (С) 20000 м    8/3 600 м кучево-дожд., верхняя 
[Cb cap|Ci fib]
-6.3 -10.3 73 -6  1023.5  1.3  741  307  -10.2         
06 05.03.15 030 (СВ) 20000 м    8/3 600 м кучево-дожд., средняя, верхняя 
[Cb cap|Ac trans|Ci fib]
-4.5 -13.7 49 -4  1023.2  741  305           
09 05.03.15 330 (СЗ) 20000 м    8/4 600 м кучево-дожд., средняя 
[Cb cap|Ac trans]
-3.1 -13.5 44 -4  1023.1  741  303           
12 05.03.15 240 (ЮЗ) 20000 м    6/0 2000 м средняя 
[Ac trans]
-6.9 -14.8 53 -7  1024.1  0.5  741  308    -2.7       
15 05.03.15 260 (З) 4000 м    4/3 2000 м средняя, верхняя 
[Ac lent|Ci fib]
-9.8 -15.7 62 -10  1025.8  1.3  742  312           
18 05.03.15 270 (З) 4000 м    6/3 2000 м средняя, верхняя 
[Ac lent|Ci fib]
-12.2 -15.7 75 -12  1027.1  0.9  743  315           
21 05.03.15 270 (З) 4000 м    3/3 2000 м средняя 
[Ac trans]
-15.1 -17.8 79 -15  1028.2  0.7  744  319           
00 06.03.15 280 (З) 4000 м  слаб. ливневой снег  8/3 600 м кучево-дожд., средняя 
[Cb cap|Ac trans]
-17.2 -19.1 85 -17  1030.4  1.9  745  322  -17.2    0.0  19  равномерный
мокрый или
старый снег
100% 
03 06.03.15 360 (С) 20000 м  слаб. ливневой снег  8/5 600 м кучево-дожд., средняя 
[Cb cap|Ac trans]
-16 -18.7 80 -16  1033.5  3.1  747  321  -17.7         
06 06.03.15 010 (С) 20000 м  слаб. ливневой снег  8/8 600 м кучево-дожд. 
[Cb cap]
-13.6 -17.9 70 -16  1035.4  2.2  749  319           
09 06.03.15 050 (СВ) 20000 м  {ливн. осадки}  1/1 600 м 
[Cu hum]
-12.6 -19.8 55 -15  1037.9  2.4  751  319           
12 06.03.15 тихо ()   20000 м  {ливн. осадки}  ясно 
-15.5 -21.5 60 -16  1041.1  2.8  753  323    -12.3  0.6     
15 06.03.15 230 (ЮЗ) 4000 м    3/0 верхняя 
[Cc]
-19.1 -22.4 76 -19  1044.4  2.6  755  329           
18 06.03.15 230 (ЮЗ) 4000 м    ясно 
-20.7 -23.2 81 -24  1045.9  1.2  756  331           
21 06.03.15 тихо ()   4000 м    ясно 
-22.2 -24.7 81 -22  1046.3  0.2  756  333           
00 07.03.15 тихо ()   20000 м    3/0 верхняя 
[Ci fib]
-24 -25.8 85 -24  1047.7  757  336  -24      20  равномерный
сухой снег
100% 
03 07.03.15 тихо ()   20000 м    3/0 верхняя 
[Ci fib]
-16.2 -19.6 75 -16  1047.8  1.3  758  326  -24.7         
06 07.03.15 040 (СВ) 20000 м    ясно 
-11.5 -19.9 50 -11  1047.1  0.1  758  320           
09 07.03.15 070 (В) 20000 м    ясно 
-8.2 -20.1 38 -8  1045.6  -1.1  757  316           
12 07.03.15 230 (ЮЗ) 20000 м    ясно 
-12.4 -20.7 50 -14  1046.2  757  321    -7.8       
15 07.03.15 230 (ЮЗ) 4000 м    ясно 
-15 -20.1 65 -17  1046.9  0.3  757  324           
18 07.03.15 тихо ()   4000 м    ясно 
-18 -21.4 74 -18  1046.8  -0.5  757  328           
21 07.03.15 тихо ()   4000 м    ясно 
-20.6 -22.5 85 -21  1046.5  -0.7  756  331           
00 08.03.15 тихо ()   20000 м    3/3 2000 м средняя 
[Ac lent]
-23.2 -24.4 89 -23  1046.3  -0.5  756  335  -23.2      19  равномерный
мокрый или
старый снег
100% 
03 08.03.15 070 (В) 4000 м  дымка  ясно 
-18.2 -20.1 85 -18  1045  -0.5  755  328  -23.7         
06 08.03.15 060 (СВ) 4000 м  дым  ясно 
-11.7 -17.9 60 -12  1043.3  -0.8  755  319           
09 08.03.15 010 (С) 2000 м  дым  ясно 
-6.6 -15.6 49 -6  1040.7  -1.7  754  312           
12 08.03.15 230 (ЮЗ) 20000 м    ясно 
-12.2 -18.4 60 -14  1040.6  -0.9  753  319    -6.3       
15 08.03.15 220 (ЮЗ) 4000 м    ясно 
-14.7 -18.1 75 -15  1040.6  -0.5  752  322           
18 08.03.15 220 (ЮЗ) 4000 м    ясно 
-16.3 -20.5 70 -16  1038.9  -1.7  751  323           
21 08.03.15 240 (ЮЗ) 4000 м    ясно 
-17.5 -21.7 70 -18  1038.1  -1  750  325           
00 09.03.15 тихо ()   10 км    ясно 
-20.3 -22.2 84 -20  1038  -0.5  750  328  -20.3      19  равномерный
мокрый или
старый снег
100% 
03 09.03.15 080 (В) 4000 м  дымка  ясно 
-14.5 -18.8 70 -15  1036.9  -0.2  750  321  -20.6         
06 09.03.15 060 (СВ) 4000 м  дым  ясно 
-7.1 -15.1 53 -7  1034.7  -1.1  749  311           
09 09.03.15 100 (В) 4000 м  дым  ясно 
-1.2 -13.3 39 -1  1032.2  -1.7  748  304           
12 09.03.15 200 (Ю) 20000 м    ясно 
-5.6 -14.4 50 -5  1031.5  -1.1  747  309    -0.6       
15 09.03.15 240 (ЮЗ) 4000 м    ясно 
-9.3 -15.5 60 -9  1031.1  -1  746  313           
18 09.03.15 тихо ()   4000 м    ясно 
-11.4 -15.8 70 -11  1029.3  -2  745  314           
21 09.03.15 210 (ЮЗ) 5-10{10}  4000 м    8/8 2000 м средняя 
[Ac lent]
-3.4 -16 37 -7  1026.7  -1.5  744  305           
00 10.03.15 220 (ЮЗ) 4{10}  20000 м    8/6 2000 м средняя, верхняя 
[Ac trans|Ci fib]
-3.2 -14.9 40 -6  1026  -0.7  743  304  -12.5      19  равномерный
мокрый или
старый снег
100% 
03 10.03.15 220 (ЮЗ) 6-10{11}  20000 м  слаб. ливневой снег  9/4 600 м кучево-дожд., средняя 
[Cb cap|Ac trans]
-3.3 -7.2 74 -7  1025.4  -0.5  743  304           
06 10.03.15 230 (ЮЗ) 3{11}  20000 м  {ливн. осадки}  9/4 600 м кучево-дожд., средняя, верхняя 
[Cb cap|Ac trans|Ci fib]
+1.5 -6.1 57 1023.7  -1  742  298           
09 10.03.15 200 (Ю) 20000 м  в посл. час ливневой снег  8/5 600 м кучево-дожд., средняя, верхняя 
[Cb cap|Ac trans|Ci fib]
+1.2 -4.7 65 +1  1022.4  -1.3  741  298           
12 10.03.15 200 (Ю) 20000 м  {ливн. осадки}  6/3 2000 м средняя, верхняя 
[Ac trans|Ci fib]
-0.6 -6.2 66 1021.5  -1.1  740  300    +3  0.3     
15 10.03.15 210 (ЮЗ) 4000 м    6/0 верхняя 
[Ci fib]
-0.1 -9.2 50 -2  1020.2  -1.3  739  299           
18 10.03.15 230 (ЮЗ) 4000 м    8/0 верхняя 
[Ci fib]
-0.3 -9.1 51 -3  1018.7  -1.4  738  299           
21 10.03.15 220 (ЮЗ) 4{10}  4000 м    9/3 600 м кучево-дожд., средняя, верхняя 
[Cb cap|Ac trans|Ci fib]
+0.1 -7.5 57 -2  1017.7  -0.8  738  298           
00 11.03.15 220 (ЮЗ) 20000 м  слаб. ливневой снег  9/8 600 м кучево-дожд., верхняя 
[Cb cap|Ci fib]
-0 -3.9 75 -2  1017.7  738  298  -2.4    0.0  19  равномерный
мокрый или
старый снег
100% 
03 11.03.15 230 (ЮЗ) 20000 м  {ливн. осадки}  10/5 600 м кучево-дожд., средняя, верхняя 
[Cb cap|Ac trans|Cs]
+2.4 -4.3 61 +1  1017.3  -0.2  737  295           
06 11.03.15 230 (ЮЗ) 5{14}  20000 м  {ливн. осадки}  10/6 600 м кучево-дожд., средняя, верхняя 
[Cb cap|Ac trans|Cs]
+4.2 -5.6 49 +2  1017  -0.2  737  293           
09 11.03.15 240 (ЮЗ) 3{11}  20000 м    10/4 600 м кучево-дожд., верхняя 
[Cb cap|Ci]
+5.4 -8.1 37 +4  1016.8  737  292           
12 11.03.15 240 (ЮЗ) 3{11}  20000 м    9/3 2000 м средняя, верхняя 
[Ac lent|Ci]
+3.6 -7.5 44 +2  1017.6  0.6  738  294    +5.6  0.0     
15 11.03.15 240 (ЮЗ) 4000 м    ясно 
-1.3 -7.2 64 -2  1018.8  0.6  738  300           
18 11.03.15 240 (ЮЗ) 4000 м    4/0 верхняя 
[Ci fib]
-1 -6.7 65 1019.2  0.3  738  299           
21 11.03.15 200 (Ю) 4000 м    9/5 600 м кучево-дожд., средняя, верхняя 
[Cb cap|Ac trans|Ci fib]
-1.7 -5.8 74 -1  1019.9  0.7  739  300           
00 12.03.15 210 (ЮЗ) 20000 м    10/6 600 м кучево-дожд., средняя 
[Cb cap|Ac As]
-0.3 -4.3 74 -2  1020.2  0.4  739  299  -1.8      17  равномерный
мокрый или
старый снег
100% 
03 12.03.15 200 (Ю) 20000 м    9/5 600 м кучево-дожд., средняя 
[Cb cap|Ac trans]
+0.6 -4.8 67 1020.7  0.7  740  298           
06 12.03.15 250 (З) 20000 м    10/8 600 м кучево-дожд., верхняя 
[Cb cap|Cs]
+3 -6.2 51 +2  1020  -0.5  739  295           
09 12.03.15 250 (З) 3{11}  20000 м    10/8 600 м кучево-дожд., верхняя 
[Cb cap|Cs]
+1.2 -5.9 59 1020  -0.1  739  297           
12 12.03.15 260 (З) 3{13}  20000 м  {ливн. осадки}  8/4 600 м кучево-дожд., средняя 
[Cb cap|Ac trans]
+0.6 -8.4 51 -1  1021  0.9  740  298    +3.3  0.0     
15 12.03.15 260 (З) 3{11}  4000 м  слаб. ливневой снег  9/5 600 м кучево-дожд., верхняя 
[Cb cap|Ci fib]
-2.1 -5.3 79 -4  1024  2.5  742  302           
18 12.03.15 240 (ЮЗ) 4000 м  слаб. ливневой снег  9/8 600 м кучево-дожд., верхняя 
[Cb cap|Ci fib]
-2.6 -6.3 76 -5  1025.3  1.3  743  303           
21 12.03.15 240 (ЮЗ) 4000 м  слаб. ливневой снег  8/5 600 м кучево-дожд., верхняя 
[Cb cap|Ci fib]
-3.6 -5.4 87 -6  1026.5  744  304           
00 13.03.15 240 (ЮЗ) 10 км  слаб. ливневой снег  9/9 600 м 
-3.4 -5.1 88 -6  1027  0.4  744  304  -3.7    19  равномерный
сухой снег
100% 
03 13.03.15 240 (ЮЗ) 20000 м  слаб. ливневой снег  9/6 600 м кучево-дожд., верхняя 
[Cb cap|Ci fib]
-1.4 -6.2 70 -3  1026.7  744  302           
06 13.03.15 230 (ЮЗ) 20000 м  в посл. час ливневой снег  9/8 600 м кучево-дожд., верхняя 
[Cb cap|Ci fib]
+1 -6.1 59 -1  1024.8  -1.6  743  299           
09 13.03.15 230 (ЮЗ) 4{10}  20000 м    9/8 600 м кучево-дожд., верхняя 
[Cb cap|Ci fib]
+1.4 -9.3 45 -1  1022.1  -2.5  741  298           
12 13.03.15 220 (ЮЗ) 3{10}  20000 м  {ливн. осадки}  9/3 600 м кучево-дожд., средняя, верхняя 
[Cb cap|Ac trans|Ci fib]
-0.2 -8.4 54 -2  1021  -1.3  740  299    +2.2  0.3     
15 13.03.15 210 (ЮЗ) 4000 м    10/5 600 м кучево-дожд., средняя 
[Cb cap|Ac As]
-1.4 -6.6 68 -1  1019  -2  738  300           
18 13.03.15 220 (ЮЗ) 4000 м  слаб. ливневой снег  10/8 600 м кучево-дожд., средняя 
[Cb cap|Ac As]
-1.8 -5.2 78 -4  1016.3  -2.7  736  299           
21 13.03.15 тихо ()   н/о  ливневой снег  10/10 600 м кучево-дожд. 
[Cb cap]
-2.8 -3.2 97 -3  1014.9  -1.4  735  300           
00 14.03.15 тихо ()   20000 м  {ливн. осадки}  9/4 600 м кучево-дожд., средняя 
[Cb cap|Ac trans]
-4 -4.5 96 -4  1014.6  -0.6  735  301  -4    20  равномерный
сухой снег
100% 
03 14.03.15 270 (З) 20000 м  слаб. ливневой снег  8/8 600 м кучево-дожд. 
[Cb cap]
-1.8 -4.6 81 -1  1014.4  0.2  735  299  -4.6         
06 14.03.15 260 (З) 20000 м  в посл. час ливневой снег  8/8 600 м кучево-дожд. 
[Cb cap]
-1.5 -6.3 70 -2  1014.5  0.1  735  298           
09 14.03.15 280 (З) 20000 м  слаб. ливневой снег  9/8 600 м кучево-дожд., средняя 
[Cb cap|Ac trans]
-1.5 -4.5 80 -1  1014.8  0.3  735  298           
12 14.03.15 240 (ЮЗ) 20000 м  слаб. ливневой снег  4/4 600 м кучево-дожд. 
[Cb cap]
-3 -6.8 75 -4  1015.6  0.5  736  300    +1.2  0.6     
15 14.03.15 230 (ЮЗ) 4000 м  {ливн. осадки}  8/3 600 м кучево-дожд., верхняя 
[Cb cap|Ci fib]
-4.2 -7.2 79 -6  1016.9  1.1  736  302           
18 14.03.15 230 (ЮЗ) 4000 м  слаб. ливневой снег  8/6 600 м кучево-дожд., верхняя 
[Cb cap|Ci fib]
-4.4 -6.4 86 -6  1016.9  736  302           
21 14.03.15 230 (ЮЗ) 4000 м  слаб. ливневой снег  9/8 600 м кучево-дожд., средняя, верхняя 
[Cb cap|Ac trans|Ci fib]
-5 -6.7 88 -6  1016.1  -0.8  736  303           
00 15.03.15 230 (ЮЗ) 20000 м  {ливн. осадки}  9/3 600 м кучево-дожд., средняя, верхняя 
[Cb cap|Ac trans|Ci fib]
-5.9 -7.8 86 -8  1015.4  -0.8  735  304  -5.9    0.2  20  равномерный
сухой снег
100% 
03 15.03.15 240 (ЮЗ) 20000 м  в посл. час ливневой снег  10/3 600 м кучево-дожд., верхняя 
[Cb cap|Cs]
-4.1 -8.3 73 -5  1015.2  735  302  -6.1         
06 15.03.15 220 (ЮЗ) 20000 м  слаб. ливневой снег  10/5 600 м кучево-дожд., верхняя 
[Cb cap|Cs]
-2.9 -7.5 71 -4  1014  -1  734  300           
09 15.03.15 240 (ЮЗ) 4000 м  ливневой снег  10/10 600 м кучево-дожд. 
[Cb cap]
-2.6 -5.9 78 -5  1013.8  734  299           
12 15.03.15 240 (ЮЗ) 4000 м  ливневой снег  10/10 600 м кучево-дожд. 
[Cb cap]
-4 -6.2 85 -6  1015  0.8  735  301    -2     
15 15.03.15 230 (ЮЗ) 4000 м  слаб. ливневой снег  8/4 600 м кучево-дожд., средняя 
[Cb cap|Ac trans]
-4.8 -7.2 83 -6  1015.3  0.3  735  302           
18 15.03.15 220 (ЮЗ) 4000 м  {ливн. осадки}  9/3 600 м кучево-дожд., средняя 
[Cb cap|Ac trans]
-4.6 -7.3 82 -6  1015.9  0.6  736  302           
21 15.03.15 220 (ЮЗ) 4000 м  слаб. ливневой снег  10/10 600 м кучево-дожд. 
[Cb cap]
-5.3 -8.2 80 -8  1015.9  -0.1  736  303           
00 16.03.15 220 (ЮЗ) 20000 м  слаб. ливневой снег  10/10 600 м 
-5.7 -8.3 82 -9  1015.9  736  304  -5.7    0.2  23  равномерный
сухой снег
100% 
03 16.03.15 220 (ЮЗ) 4{10}  20000 м  слаб. ливневой снег  10/8 600 м кучево-дожд., средняя 
[Cb cap|Ac As]
-4.6 -7.3 82 -8  1016.5  0.6  736  302           
06 16.03.15 220 (ЮЗ) 20000 м  в посл. час ливневой снег  9/6 600 м кучево-дожд., средняя 
[Cb cap|Ac trans]
-2.2 -7.3 68 -5  1016  -0.1  736  300           
09 16.03.15 240 (ЮЗ) 20000 м  слаб. ливневой снег  9/6 600 м кучево-дожд., средняя 
[Cb cap|Ac trans]
-2 -8.2 63 -4  1016.4  0.3  736  300           
12 16.03.15 260 (З) 2{10}  20000 м  слаб. ливневой снег  10/8 600 м кучево-дожд., верхняя 
[Cb cap|Cs]
-2.7   1017.3  0.9  737      -1.5  0.4     
15 16.03.15 240 (ЮЗ) 4000 м  слаб. ливневой снег  9/5 600 м кучево-дожд., верхняя 
[Cb cap|Ci fib]
-4.2 -7.6 77 -7  1018.5  0.9  738  303           
18 16.03.15 240 (ЮЗ) 4000 м  слаб. ливневой снег{морось}  9/6 600 м кучево-дожд., верхняя 
[Cb cap|Ci fib]
-4.8 -7.2 83 -7  1018.3  -0.2  737  303           
21 16.03.15 240 (ЮЗ) 4000 м  слаб. ливневой снег  9/5 600 м кучево-дожд., верхняя 
[Cb cap|Ci fib]
-5.2 -7.7 83 -8  1017.6  -0.8  737  303           
00 17.03.15 230 (ЮЗ) 5{10}  4000 м  ливневой снег  10/10 600 м кучево-дожд. 
[Cb cap]
-5.1 -7.2 85 -9  1017.1  -0.5  737  303  -5.5    0.5  23  равномерный
сухой снег
100% 
03 17.03.15 230 (ЮЗ) 4{10}  4000 м  ливневой снег  10/8 600 м кучево-дожд., верхняя 
[Cb cap|Cs]
-3.8 -6 85 -7  1016.4  -0.5  736  301           
06 17.03.15 230 (ЮЗ) 4{12}  4000 м    10/10 600 м кучево-дожд. 
[Cb cap]
-2.9 -6 79 -6  1014.6  -1.7  735  300           
09 17.03.15 240 (ЮЗ) 4-11{11}  20000 м  слаб. ливневой снег  10/10 600 м кучево-дожд. 
[Cb cap]
-2.4 -6 76 -5  1011.2  -3.1  733  298           
12 17.03.15 240 (ЮЗ) 5-11{13}  4000 м  ливневой снег  10/10 600 м кучево-дожд. 
[Cb cap]
-3 -6.1 79 -7  1009.2  -0.2  731  298    -2.2     
18 17.03.15 270 (З) 4-10{14}  4000 м  слаб. ливневой снег  10/10 600 м кучево-дожд. 
[Cb cap]
-4.8 -9.2 71 -8  1007.6  730  300           
21 17.03.15 260 (З) 3{16}  4000 м  слаб. ливневой снег  9/6 600 м кучево-дожд., средняя 
[Cb cap|Ac trans]
-6.5 -11.1 70 -9  1007.8    730  302           
00 18.03.15 240 (ЮЗ) 4-10{10}  2000 м  ливневой снег  10/10 600 м кучево-дожд. 
[Cb cap]
-7.1 -10 80 -11  1009.4  1.4  731  303  -7.5    28  равномерный
сухой снег
100% 
03 18.03.15 250 (З) 4{10}  20000 м  слаб. ливневой снег  9/6 600 м кучево-дожд., средняя 
[Cb cap|Ac trans]
-6.2 -10.2 73 -10  1010.2  731  303           
06 18.03.15 230 (ЮЗ) 8{14}  20000 м  слаб. ливневой снег  9/5 600 м кучево-дожд., средняя, верхняя 
[Cb cap|Ac trans|Ci fib]
-4.3 -8.9 70 -9  1011  0.9  732  301           
09 18.03.15 240 (ЮЗ) 4-11{14}  20000 м  слаб. ливневой снег  10/10 600 м кучево-дожд. 
[Cb cap]
-3.5 -8.3 69 -6  1011.8  0.6  733  300           
12 18.03.15 250 (З) 5-10{13}  20000 м  слаб. ливневой снег  10/6 600 м кучево-дожд., верхняя 
[Cb cap|Cs]
-3 -8.8 64 -7  1010.9  -0.5  732  299    -3  0.4     
15 18.03.15 240 (ЮЗ) 5-12{12}  н/о  ливневой снег  10/10 600 м кучево-дожд. 
[Cb cap]
-3.8 -6.7 80 -7  1010.1  -0.8  732  300           
18 18.03.15 230 (ЮЗ) 6-13{13}  н/о  ливневой снег  10/10 600 м кучево-дожд. 
[Cb cap]
-4.2 -6.8 82 -8  1007.8  -2.4  730  299           
21 18.03.15 230 (ЮЗ) 6-11{16}  н/о  ливневой снег  10/10 600 м кучево-дожд. 
[Cb cap]
-4.3 -5.9 89 -9  1006  -1.7  729  299           
00 19.03.15 240 (ЮЗ) 6-12{15}  0500 м  ливневой снег  10/10 600 м кучево-дожд. 
[Cb cap]
-3.6 -5.4 87 -8  1004.8  -1  728  298  -4.5    33  равномерный
сухой снег
100% 
03 19.03.15 230 (ЮЗ) 6-13{15}  0500 м  ливневой снег  10/10 600 м кучево-дожд. 
[Cb cap]
-2.9 -4.6 88 -7  1004.4  -0.4  728  297           
06 19.03.15 250 (З) 4-11{13}  0500 м  ливневой снег  10/10 600 м кучево-дожд. 
[Cb cap]
-1.2 -2.8 89 -4  1004.7  0.5  728  295           
09 19.03.15 290 (З) 4{14}  0500 м  ливневой снег  10/10 600 м кучево-дожд. 
[Cb cap]
-1 -1.7 95 -4  1007.3  2.5  730  295           
12 19.03.15 250 (З) 3{11}  20000 м  слаб. ливневой снег  10/10 600 м кучево-дожд. 
[Cb cap]
-3 -5.4 83 -5  1011.1  3.5  732  299    -0.2     
15 19.03.15 310 (СЗ) 4000 м  слаб. ливневой снег  9/9 600 м кучево-дожд. 
[Cb cap]
-5.9 -9.4 76 -6  1016.2  4.5  736  304           
18 19.03.15 280 (З) 4000 м  {ливн. осадки}  10/10 600 м кучево-дожд. 
[Cb cap]
-8.1 -14.4 61 -10  1019.7  3.2  738  308           
21 19.03.15 250 (З) 4000 м  слаб. ливневой снег  8/8 600 м кучево-дожд. 
[Cb cap]
-10.1 -13.7 75 -12  1022  1.9  740  311           
00 20.03.15 250 (З) 20000 м  {ливн. осадки}  5/3 600 м кучево-дожд., средняя 
[Cb cap|Ac lent]
-11 -14.6 75 -13  1024.3  2.1  741  312  -11    0.2  39  равномерный
сухой снег
100% 
06 20.03.15 270 (З) 20000 м  {ливн. осадки}  8/4 600 м кучево-дожд., средняя 
[Cb cap|Ac trans]
-6.2 -13.7 55 -10  1028  1.3  744  308           
09 20.03.15 270 (З) 20000 м    4/4 600 м кучево-дожд. 
[Cb cap]
-3.9 -16.3 38 -7  1028.1  0.4  745  306           
12 20.03.15 240 (ЮЗ) 20000 м    4/3 2000 м средняя, верхняя 
[Ac lent|Ci fib]
-6.7 -15.7 49 -8  1028.8  0.3  745  309    -3.6  0.0     
15 20.03.15 220 (ЮЗ) 4000 м    6/0 верхняя 
[Ci fib]
-7.7 -14.9 56 -11  1027.9  -1  744  310           
18 20.03.15 210 (ЮЗ) 6-10{12}  4000 м  позёмок  9/0 верхняя 
[Ci fib]
-7.5 -15.2 54 -12  1026.6  -1.2  743  309           
21 20.03.15 250 (З) 2{10}  4000 м    9/0 верхняя 
[Ci fib]
-8 -14.8 58 -10  1025.3  -1.3  742  309           
00 21.03.15 220 (ЮЗ) 5-11{11}  20000 м    9/4 600 м кучево-дожд., средняя, верхняя 
[Cb cap|Ac lent|Ci fib]
-6.4 -12.9 60 -10  1023.3  -1.8  741  307  -8.5      35  равномерный
сухой снег
100% 
03 21.03.15 220 (ЮЗ) 6-12{13}  4000 м  ливневой снег  10/8 600 м кучево-дожд., верхняя 
[Cb cap|Cs]
-4.3 -9.4 68 -9  1022.4  -0.5  740  304           
06 21.03.15 230 (ЮЗ) 6-14{15}  20000 м  {ливн. осадки}  9/4 600 м кучево-дожд., средняя, верхняя 
[Cb cap|Ac trans|Ci fib]
+1.2 -7.8 51 -2  1020  -1.6  739  297           
09 21.03.15 230 (ЮЗ) 7-13{16}  20000 м    10/3 600 м кучево-дожд., средняя, верхняя 
[Cb cap|Ac trans|Cs]
+4 -6.3 47 +1  1019.5  -0.3  739  294           
12 21.03.15 230 (ЮЗ) 5-10{16}  20000 м    9/5 2000 м средняя, верхняя 
[Ac trans|Ci fib]
+3 -6.6 49 +1  1019.6  739  295    +4  0.0     
15 21.03.15 230 (ЮЗ) 5-10{15}  4000 м    8/8 2000 м средняя 
[Ac trans]
+2.6 -6.8 50 1020.1  0.5  739  296           
18 21.03.15 240 (ЮЗ) 3{15}  4000 м    8/3 2000 м средняя, верхняя 
[Ac trans|Ci fib]
+2.2 -7 51 +1  1020.2  0.1  740  296           
21 21.03.15 230 (ЮЗ) 5{13}  4000 м    9/4 2000 м средняя, верхняя 
[Ac trans|Ci fib]
+1.9 -8.3 47 -1  1020.9  0.6  740  297           
00 22.03.15 220 (ЮЗ) 6-11{13}  20000 м    10/10 2000 м 
[Ac As]
+1.4 -9.1 45 -2  1021  0.1  740  298  +1.4      31  равномерный
мокрый или
старый снег
100% 
03 22.03.15 220 (ЮЗ) 5-11{13}  20000 м    10/10 2000 м 
[Ac As]
+3.2 -9.6 38 +1  1022.1  1.2  741  296           
06 22.03.15 230 (ЮЗ) 5-11{13}  20000 м    9/4 2000 м средняя, верхняя 
[Ac trans|Ci fib]
+7.7 -10.9 25 +6  1021.4  -0.2  741  291           
09 22.03.15 240 (ЮЗ) 4{13}  20000 м    10/0 верхняя 
[Cs]
+9 -10.9 23 +8  1020.8  -0.4  740  290           
12 22.03.15 220 (ЮЗ) 3{10}  20000 м    9/8 2000 м средняя, верхняя 
[Ac trans|Ci fib]
+7 -10.7 27 +6  1020  -1  740  292    +9.1       
15 22.03.15 220 (ЮЗ) 4000 м    8/0 верхняя 
[Ci fib]
+6 -9 33 +5  1018.2  -1.8  738  292           
18 22.03.15 250 (З) 4000 м    6/0 верхняя 
[Ci fib]
+4.5 -8.7 38 +3  1016.4  -1.9  737  293           
21 22.03.15 220 (ЮЗ) 4000 м    3/0 верхняя 
[Ci fib]
+5 -7.8 39 +3  1014.3  -2  735  292           
00 23.03.15 210 (ЮЗ) 20000 м    9/4 600 м кучево-дожд., средняя, верхняя 
[Cb cap|Ac trans|Ci fib]
+4.6 -7.6 41 +3  1012.6  -1.7  734  292  +3.2      26  равномерный
мокрый или
старый снег
100% 
03 23.03.15 100 (В) 3{10}  20000 м    10/6 600 м кучево-дожд., средняя 
[Cb cap|Ac As]
+7 -10.2 28 +6  1010.6  -1.7  733  289           
06 23.03.15 220 (ЮЗ) 3{10}  20000 м    10/8 600 м кучево-дожд., средняя, верхняя 
[Cb cap|Ac lent|Cs]
+10 -9.6 24 +10  1007.8  -2.3  731  285           
09 23.03.15 200 (Ю) 4{12}  20000 м  в посл. час ливневой дождь  9/6 600 м кучево-дожд., средняя, верхняя 
[Cb cap|Ac lent|Ci fib]
+10.1 -7.8 28 +9  1006.7  -1.1  730  285           
12 23.03.15 240 (ЮЗ) 6-12{16}  20000 м  слаб. ливневой дождь  10/10 600 м кучево-дожд. 
[Cb cap]
+8.3 -0.7 53 +6  1006.6  -0.2  730  286    +10.1  0.0     
15 23.03.15 250 (З) 3{12}  4000 м  в посл. час ливневой дождь  8/8 600 м кучево-дожд. 
[Cb cap]
+6.3 +1.3 70 +5  1007.7  0.8  731  288           
18 23.03.15 250 (З) 2{11}  4000 м  слаб. ливневой дождь  8/8 600 м кучево-дожд. 
[Cb cap]
+6.8 +0.8 66 +7  1009.3  1.6  732  288           
21 23.03.15 250 (З) 4000 м  в посл. час ливневой дождь  9/6 600 м кучево-дожд., средняя 
[Cb cap|Ac trans]
+4.9 +1.1 76 +5  1010.5  733  290           
00 24.03.15 210 (ЮЗ) 20000 м  {ливн. осадки}  9/4 600 м средняя, верхняя 
[Cu hum|Ac trans|Ci fib]
+3.7 +0.3 78 +3  1011.1  0.3  733  291  +3.4    16  мокрый или
старый снег
50-90% 
03 24.03.15 тихо ()   20000 м    10/8 600 м кучево-дожд., средняя, верхняя 
[Cb cap|Ac trans|Cs]
+4.8 +0.7 75 +5  1010.7  -0.2  733  290  +2.5         
06 24.03.15 240 (ЮЗ) 20000 м    10/5 600 м кучево-дожд., средняя, верхняя 
[Cb cap|Ac lent|Cs]
+9 -1.7 47 +8  1007.3  -2.7  731  285           
09 24.03.15 250 (З) 3{10}  20000 м    10/3 2000 м средняя, верхняя 
[Ac lent|Cs]
+10.6 -1.4 43 +10  1003.3  -3.8  728  282           
12 24.03.15 200 (Ю) 20000 м    10/8 2000 м средняя, верхняя 
[Ac trans|Cs]
+9.4 -1.1 48 +10  1000.1  -3.2  726  283    +11.3       
15 24.03.15 тихо ()   4000 м    10/5 600 м кучево-дожд., средняя 
[Cb cap|Ac As]
+4.8 -0.8 67 +5  997.3  -3.3  723  286           
18 24.03.15 тихо ()   4000 м  слаб. ливневой дождь  10/10 600 м кучево-дожд. 
[Cb cap]
+3.9 +1.3 83 +4  995  -2.2  721  286           
21 24.03.15 230 (ЮЗ) 4000 м  слаб. ливневой дождь  10/10 600 м кучево-дожд. 
[Cb cap]
+6.6 +4 83 +6  992.4  -2.3  720  282           
00 25.03.15 240 (ЮЗ) 7-15{17}  20000 м  {ливн. осадки}  10/8 600 м кучево-дожд., средняя 
[Cb cap|Ac As]
+8.8 -0.5 52 +7  995.9  3.7  722  282  +2.9    10  мокрый или
старый снег
50-90% 
03 25.03.15 260 (З) 5-14{17}  20000 м  в посл. час ливневой снег  8/8 600 м кучево-дожд. 
[Cb cap]
+4.1 -0.2 74 +2  1006.2  9.4  730  290  +4.1         
06 25.03.15 250 (З) 4{13}  20000 м  слаб. ливневой дождь  10/10 600 м кучево-дожд. 
[Cb cap]
+3.6 -1.4 70 +2  1014.4  7.8  735  293           
09 25.03.15 250 (З) 20000 м  слаб. ливневой дождь  10/8 600 м кучево-дожд., средняя 
[Cb cap|Ac As]
+3.8 +0 76 +3  1016.2  737  293           
12 25.03.15 240 (ЮЗ) 20000 м  в посл. час ливневой снег  9/4 600 м кучево-дожд., средняя, верхняя 
[Cb cap|Ac trans|Ci fib]
+1.9 +0 87 +1  1018.8  2.2  738  295    +8.4     
15 25.03.15 300 (СЗ) 4000 м  в посл. час ливневой снег  8/4 600 м кучево-дожд., средняя 
[Cb cap|Ac trans]
+0.3 -4 73 +1  1021.2  2.1  740  298           
18 25.03.15 060 (СВ) 4000 м  слаб. ливневой снег  9/9 600 м кучево-дожд. 
[Cb cap]
-2 -4.6 82 -1  1020.8  -0.7  740  301           
21 25.03.15 090 (В) н/о  ливневой снег  10/10 600 м кучево-дожд. 
[Cb cap]
-2.2 -3.7 89 -2  1018.9  -1.8  738  300           
00 26.03.15 290 (З) 20000 м  {ливн. осадки}  9/5 600 м кучево-дожд., средняя 
[Cb cap|Ac trans]
-3.8 -7.9 73 -5  1024.1  4.7  742  304  -3.8    0.9  10  равномерный
сухой снег
100% 
03 26.03.15 260 (З) 20000 м  слаб. ливневой снег  9/8 600 м кучево-дожд., верхняя 
[Cb cap|Ci fib]
-3.1 -9.2 63 -5  1026  1.9  743  304  -4.4         
06 26.03.15 260 (З) 3{10}  20000 м  слаб. ливневой снег  9/8 600 м кучево-дожд., верхняя 
[Cb cap|Ci fib]
-1.4 -9.9 52 -3  1026.1  0.4  743  302           
09 26.03.15 250 (З) 20000 м  слаб. ливневой снег  9/9 600 м кучево-дожд. 
[Cb cap]
+0 -9 51 -2  1024.7  -1.2  743  300           
12 26.03.15 240 (ЮЗ) 20000 м  {ливн. осадки}  8/3 2000 м средняя, верхняя 
[Ac lent|Ci fib]
-0.8 -12.5 41 -2  1023.7  -1.1  742  301    +0.7  0.0     
15 26.03.15 230 (ЮЗ) 4000 м    8/0 верхняя 
[Ci fib]
-2.5 -12.9 45 -2  1022.5  -1.3  741  302           
18 26.03.15 230 (ЮЗ) 3{10}  4000 м    9/3 600 м кучево-дожд., средняя, верхняя 
[Cb cap|Ac trans|Ci fib]
-2.2 -9.8 56 -4  1020.7  -1.7  739  301           
21 26.03.15 230 (ЮЗ) 4{10}  4000 м  слаб. ливневой снег  9/6 600 м кучево-дожд., средняя, верхняя 
[Cb cap|Ac trans|Ci fib]
-1.6 -9.3 56 -4  1018.4  -2.1  738  300           
00 27.03.15 220 (ЮЗ) 3{11}  20000 м  слаб. ливневой снег  10/8 600 м кучево-дожд., средняя 
[Cb cap|Ac As]
-1.6 -7.6 64 -4  1017.4  -1  737  300  -2.6    0.0  мокрый или
старый снег
50-90% 
03 27.03.15 250 (З) 4-10{10}  2000 м  ливневой снег  9/9 600 м кучево-дожд. 
[Cb cap]
-1.3 -4.6 78 -4  1017.8  0.4  737  299           
06 27.03.15 260 (З) 4{13}  20000 м  слаб. ливневой снег  10/6 600 м кучево-дожд., верхняя 
[Cb cap|Cs]
+0.6 -10.3 44 -2  1017.8  0.3  738  298           
09 27.03.15 270 (З) 4{14}  20000 м  {ливн. осадки}  10/3 600 м кучево-дожд., верхняя 
[Cb cap|Cs]
+1.7 -11.9 36 1018.1  0.4  738  297           
12 27.03.15 290 (З) 20000 м  {ливн. осадки}  8/3 600 м кучево-дожд., средняя, верхняя 
[Cb cap|Ac lent|Ci fib]
+0 -11.5 42 +1  1018.4  738  298    +2.7  0.6     
15 27.03.15 250 (З) 4000 м    8/4 2000 м средняя, верхняя 
[Ac trans|Ci fib]
-2.4 -11.1 51 -3  1018.4  -0.2  738  301           
18 27.03.15 230 (ЮЗ) 4000 м    9/6 2000 м средняя, верхняя 
[Ac trans|Ci fib]
-2.7 -11.1 52 -2  1018.2  -0.2  738  301           
21 27.03.15 тихо ()   4000 м    9/9 2000 м средняя 
[Ac trans]
-4.7 -10.9 62 -5  1017.7  -0.8  737  303           
00 28.03.15 280 (З) 20000 м    10/8 600 м кучево-дожд., средняя 
[Cb cap|Ac As]
-4.9 -10.7 64 -4  1017.8  737  303  -4.9      мокрый или
старый снег
50-90% 
03 28.03.15 020 (С) 20000 м  в посл. час ливневой снег  9/5 600 м кучево-дожд., средняя, верхняя 
[Cb cap|Ac trans|Cs]
-3.8 -10 62 -3  1017.5  -0.2  737  302           
06 28.03.15 320 (СЗ) 20000 м  слаб. ливневой снег  10/10 600 м кучево-дожд. 
[Cb cap]
-2.8 -10.3 56 -2  1017.8  0.4  737  301           
09 28.03.15 010 (С) 20000 м  слаб. ливневой снег  10/8 600 м кучево-дожд., средняя 
[Cb cap|Ac As]
-2 -9.5 57 -1  1018.2  0.6  738  300           
12 28.03.15 330 (СЗ) 20000 м  {ливн. осадки}  10/5 600 м кучево-дожд., средняя, верхняя 
[Cb cap|Ac trans|Cs]
-3 -9.3 62 -3  1020.4  1.9  739  302    -1.6  0.0     
15 28.03.15 270 (З) 4000 м    9/4 600 м кучево-дожд., средняя, верхняя 
[Cb cap|Ac cuf|Ci fib]
-4.7 -9.1 71 -4  1022.7  2.1  741  305           
18 28.03.15 280 (З) 4000 м    6/6 2000 м средняя 
[Ac cuf]
-7.1 -11.4 71 -7  1024.4  1.3  742  308           
21 28.03.15 250 (З) 4000 м    ясно 
-8.5 -13.3 68 -8  1025.7  1.2  743  310           
00 29.03.15 220 (ЮЗ) 20000 м    ясно 
-11.3 -14.1 80 -11  1027.8  1.5  744  314  -11.3      мокрый или
старый снег
50-90% 
03 29.03.15 330 (СЗ) 20000 м    4/4 600 м 
[Cu med, cong]
-6.1 -11.9 63 -8  1028.9  1.8  745  308  -11.5         
06 29.03.15 330 (СЗ) 20000 м    8/8 600 м 
[Cu med, cong]
-3.4 -12.9 48 -3  1028.5  745  305           
09 29.03.15 340 (С) 20000 м    6/3 600 м средняя 
[Cu hum|Ac lent]
-1.6 -12.4 43 -3  1027.8  -0.4  745  303           
12 29.03.15 280 (З) 20000 м    3/3 2000 м средняя, верхняя 
[Ac trans|Ci fib]
-3 -13.3 45 -3  1028.1  745  305    -1.2       
15 29.03.15 260 (З) 4000 м    ясно 
-6.3 -13.8 55 -6  1030  1.4  746  309           
18 29.03.15 тихо ()   4000 м    ясно 
-8.5 -13.3 68 -9  1030.4  0.1  746  311           
21 29.03.15 240 (ЮЗ) 4000 м    ясно 
-8.7 -12 77 -10  1030.4  -0.1  746  311           
00 30.03.15 260 (З) 20000 м    ясно 
-9.1 -13 73 -11  1030.3  -0.1  746  312  -9.6      мокрый или
старый снег
50-90% 
03 30.03.15 200 (Ю) 20000 м    3/0 верхняя 
[Ci fib]
-4 -11.3 57 -5  1029.7  0.1  746  306           
06 30.03.15 210 (ЮЗ) 20000 м    3/0 верхняя 
[Ci fib]
+0.8 -11.5 39 1027.1  -1.9  744  300           
09 30.03.15 240 (ЮЗ) 20000 м    ясно 
+3.9 -12.7 29 +3  1024.6  -2  743  296           
12 30.03.15 220 (ЮЗ) 20000 м    ясно 
+2.2 -15.1 27 +2  1023.2  -1.6  742  298    +4.2       
15 30.03.15 240 (ЮЗ) 4000 м    ясно 
-2.8 -15.4 37 -4  1024  0.1  742  303           
18 30.03.15 тихо ()   4000 м    ясно 
-3.6 -14.4 43 -4  1023.7  -0.3  741  304           
21 30.03.15 тихо ()   4000 м    ясно 
-6.8 -13 61 -7  1024.3  0.1  742  308           
00 31.03.15 тихо ()   20000 м    3/0 верхняя 
[Ci fib]
-7.7 -12.2 70 -8  1025.3  0.9  742  309  -7.7      мокрый или
старый снег
50-90% 
03 31.03.15 060 (СВ) 20000 м    ясно 
+0.3 -9.4 48 +1  1025  0.8  743  300  -8         
06 31.03.15 070 (В) 20000 м    3/0 верхняя 
[Ci fib]
+3.4 -10.4 36 +4  1025.1  0.4  743  297           
09 31.03.15 050 (СВ) 20000 м    3/0 верхняя 
[Ci fib]
+5.1 -11.5 29 +6  1024.8  -0.1  743  295           
12 31.03.15 050 (СВ) 20000 м    3/3 2000 м средняя 
[Ac trans]
+2 -11.9 35 +3  1026.2  744  299    +5.4       
15 31.03.15 240 (ЮЗ) 4000 м    3/3 2000 м средняя 
[Ac trans]
-3.1 -9.4 62 -3  1028.5  1.6  745  305           
18 31.03.15 220 (ЮЗ) 4000 м    3/0 верхняя 
[Ci fib]
-4.5 -10.1 65 -4  1028.3  -0.3  745  306           
21 31.03.15 240 (ЮЗ) 4000 м    ясно 
-5.8 -9.7 74 -7  1027.5  -1.1  744  307           
00 01.04.15 250 (З) 20000 м    ясно 
-7.2 -9.3 85 -7  1026.7  -0.9  743  309  -7.3      мокрый или
старый снег
50-90% 
03 01.04.15 050 (СВ) 20000 м    3/0 верхняя 
[Ci fib]
-0.7 -7.9 58 1024.7  -1  743  301           
06 01.04.15 070 (В) 20000 м    3/0 верхняя 
[Ci fib]
+4.1 -7 44 +4  1021.8  -2.4  741  295           
09 01.04.15 050 (СВ) 20000 м    4/0 верхняя 
[Ci fib]
+5.6 -7.2 39 +5  1019.2  -2.2  739  293           
12 01.04.15 тихо ()   20000 м    3/0 верхняя 
[Ci fib]
+4 -8.1 41 +4  1018.7  -0.8  738  294    +5.8       
15 01.04.15 250 (З) 4000 м    3/0 верхняя 
[Ci fib]
-1.8 -8.8 59 -1  1020.3  0.9  739  301           
18 01.04.15 230 (ЮЗ) 4000 м    ясно 
-3.8 -8.3 71 -5  1020.2  -0.4  739  303           
21 01.04.15 260 (З) 4000 м    ясно 
-3.4 -7.7 72 -3  1020.5  0.4  739  302           
00 02.04.15 250 (З) 20000 м    8/8 2000 м средняя 
[Ac As]
-3.8 -8.7 69 -3  1021.9  1.9  740  303  -4.4      мокрый или
старый снег
50-90% 
03 02.04.15 050 (СВ) 20000 м    8/8 2000 м средняя 
[Ac trans]
+0 -7.2 58 +1  1022.6  1.1  741  299           
06 02.04.15 020 (С) 20000 м    3/3 2000 м средняя 
[Ac trans]
+3.8 -8 42 +3  1022.1  0.2  741  295           
09 02.04.15 040 (СВ) 20000 м    3/3 600 м верхняя 
[Cu med, cong|Cc]
+4.4 -7.5 42 +4  1022.2  0.1  741  295           
12 02.04.15 040 (СВ) 20000 м    3/3 2000 м средняя, верхняя 
[Ac lent|Cc]
+2.4 -8.5 44 +3  1023.8  1.3  742  297    +5       
15 02.04.15 тихо ()   4000 м    8/4 2000 м средняя, верхняя 
[Ac lent|Ci fib]
-2.1 -8.3 62 -2  1026.1  1.6  743  303           
18 02.04.15 250 (З) 4000 м    8/5 2000 м средняя, верхняя 
[Ac trans|Ci fib]
-3.3 -7.7 72 -3  1027.1  0.8  744  304           
21 02.04.15 250 (З) 4000 м    9/3 2000 м средняя, верхняя 
[Ac lent|Ci fib]
-5.3 -9 75 -5  1027.8  0.5  744  307           
00 03.04.15 240 (ЮЗ) 20000 м    3/0 верхняя 
[Ci fib]
-6.7 -10 77 -6  1029.9  1.8  746  309  -6.7      мокрый или
старый снег
50-90% 
03 03.04.15 060 (СВ) 20000 м    ясно 
-1 -8.8 55 1029.8  0.6  746  303           
06 03.04.15 040 (СВ) 20000 м    ясно 
+1.8 -9.5 43 1028.8  -0.6  746  299           
09 03.04.15 050 (СВ) 20000 м    3/0 верхняя 
[Ci fib]
+2 -12.3 34 +1  1028.4  -0.4  745  299           
Время (UTC), дата Ветер
(°,м/с) 
Видим.   Явления Облачность Т
(°С)
Тd
(°С)
f(%) Тe
(°С)
Pmin
(гПа)
dP
(гПа)
Po
(мм)
O2
(г/м3)
Тmin Tmax R s Состояние
почвы